When you browse on this site, cookies collect data to enhance your experience and personalize the content and advertising you see.
Visit our Privacy Policy to learn more. By continuing to use the site, you agree to this use of cookies and data.
  • en Suisse
  • Liste des pays
  • À 7 jours
  • Température de l'eau
  • Carte météo
  • Widgets météo
  • user-avatar
    Se connecter

    Météo par heure à Spokan

    Ce jour, 6 Décembre, Vendredi

    Heure Température Précipitation Vent Pression Humidité
    00:00 +3°C° 0 mm 1 m/s 705 mmHg 91%
    01:00 +2°C° 0 mm 1 m/s 705 mmHg 91%
    02:00 +2°C° 0 mm 1 m/s 705 mmHg 91%
    03:00 +2°C° 0 mm 1 m/s 705 mmHg 91%
    04:00 +2°C° 0 mm 1 m/s 705 mmHg 91%
    05:00 +2°C° 0 mm 1 m/s 704 mmHg 91%
    06:00 +2°C° 0 mm 1 m/s 704 mmHg 91%
    07:00 +2°C° 0 mm 1 m/s 704 mmHg 91%
    08:00 +3°C° 0 mm 1 m/s 704 mmHg 87%
    09:00 +4°C° 0 mm 1 m/s 704 mmHg 83%
    10:00 +5°C° 0 mm 1 m/s 705 mmHg 79%
    11:00 +5°C° 0 mm 1 m/s 704 mmHg 76%
    12:00 +6°C° 0 mm 1 m/s 703 mmHg 73%
    13:00 +6°C° 0 mm 1 m/s 703 mmHg 70%
    14:00 +6°C° 0 mm 1 m/s 703 mmHg 74%
    15:00 +4°C° 0 mm 0 m/s 703 mmHg 78%
    16:00 +3°C° 0 mm 0 m/s 703 mmHg 82%
    17:00 +4°C° 0 mm 1 m/s 702 mmHg 82%
    18:00 +4°C° 0 mm 1 m/s 702 mmHg 83%
    19:00 +3°C° 0 mm 1 m/s 702 mmHg 84%
    20:00 +3°C° 0 mm 1 m/s 702 mmHg 84%
    21:00 +4°C° 0 mm 1 m/s 702 mmHg 83%
    22:00 +4°C° 0 mm 1 m/s 702 mmHg 83%
    23:00 +4°C° 0 mm 1 m/s 701 mmHg 83%

    Demain, 7 Décembre, Samedi

    Heure Température Précipitation Vent Pression Humidité
    00:00 +4°C° 0 mm 1 m/s 701 mmHg 83%
    01:00 +4°C° 0 mm 1 m/s 701 mmHg 83%
    02:00 +4°C° 0 mm 1 m/s 700 mmHg 82%
    03:00 +4°C° 0 mm 1 m/s 700 mmHg 82%
    04:00 +4°C° 0 mm 1 m/s 699 mmHg 82%
    05:00 +4°C° 0.6 mm 1 m/s 699 mmHg 85%
    06:00 +3°C° 0.6 mm 2 m/s 699 mmHg 89%
    07:00 +3°C° 0.6 mm 2 m/s 698 mmHg 92%
    08:00 +3°C° 0.2 mm 2 m/s 698 mmHg 91%
    09:00 +3°C° 0.2 mm 2 m/s 698 mmHg 90%
    10:00 +4°C° 0.2 mm 2 m/s 698 mmHg 90%
    11:00 +4°C° 0 mm 2 m/s 698 mmHg 88%
    12:00 +5°C° 0 mm 2 m/s 698 mmHg 86%
    13:00 +6°C° 0 mm 1 m/s 698 mmHg 84%
    14:00 +6°C° 0.2 mm 1 m/s 697 mmHg 87%
    15:00 +5°C° 0.2 mm 2 m/s 697 mmHg 90%
    16:00 +4°C° 0.2 mm 2 m/s 697 mmHg 93%
    17:00 +5°C° 1.3 mm 1 m/s 697 mmHg 94%
    18:00 +5°C° 1.3 mm 1 m/s 697 mmHg 96%
    19:00 +5°C° 1.3 mm 1 m/s 697 mmHg 98%
    20:00 +5°C° 0.6 mm 1 m/s 697 mmHg 97%
    21:00 +5°C° 0.6 mm 1 m/s 697 mmHg 97%
    22:00 +5°C° 0.6 mm 1 m/s 697 mmHg 97%
    23:00 +5°C° 0.1 mm 1 m/s 697 mmHg 97%

    Après-demain, 8 Décembre, Dimanche

    Heure Température Précipitation Vent Pression Humidité
    00:00 +4°C° 0.1 mm 2 m/s 697 mmHg 97%
    01:00 +4°C° 0.1 mm 2 m/s 697 mmHg 97%
    02:00 +3°C° 0 mm 2 m/s 697 mmHg 96%
    03:00 +3°C° 0 mm 2 m/s 698 mmHg 96%
    04:00 +2°C° 0 mm 2 m/s 698 mmHg 95%
    05:00 +2°C° 0 mm 2 m/s 698 mmHg 95%
    06:00 +1°C° 0 mm 2 m/s 699 mmHg 95%
    07:00 +1°C° 0 mm 2 m/s 699 mmHg 96%
    08:00 +3°C° 0 mm 1 m/s 700 mmHg 92%
    09:00 +3°C° 0 mm 1 m/s 701 mmHg 89%
    10:00 +4°C° 0 mm 1 m/s 702 mmHg 86%
    11:00 +4°C° 0 mm 1 m/s 702 mmHg 81%
    12:00 +5°C° 0 mm 1 m/s 702 mmHg 77%
    13:00 +6°C° 0 mm 1 m/s 702 mmHg 72%
    14:00 +5°C° 0 mm 1 m/s 703 mmHg 76%
    15:00 +4°C° 0 mm 1 m/s 703 mmHg 80%
    16:00 +4°C° 0 mm 1 m/s 703 mmHg 84%
    17:00 +3°C° 0 mm 1 m/s 704 mmHg 87%
    18:00 +3°C° 0 mm 1 m/s 704 mmHg 89%
    19:00 +2°C° 0 mm 1 m/s 704 mmHg 92%
    20:00 +2°C° 0 mm 1 m/s 705 mmHg 92%
    21:00 +2°C° 0 mm 1 m/s 705 mmHg 93%
    22:00 +1°C° 0 mm 0 m/s 705 mmHg 94%
    23:00 0°C° 0 mm 0 m/s 705 mmHg 94%

    9 Décembre, Lundi

    Heure Température Précipitation Vent Pression Humidité
    00:00 0°C° 0 mm 0 m/s 706 mmHg 94%
    01:00 0°C° 0 mm 0 m/s 706 mmHg 95%
    02:00 0°C° 0 mm 0 m/s 706 mmHg 95%
    03:00 0°C° 0 mm 0 m/s 706 mmHg 95%
    04:00 0°C° 0 mm 0 m/s 706 mmHg 95%
    05:00 0°C° 0 mm 0 m/s 707 mmHg 94%
    06:00 0°C° 0 mm 0 m/s 707 mmHg 94%
    07:00 0°C° 0 mm 0 m/s 707 mmHg 93%
    08:00 +1°C° 0 mm 0 m/s 708 mmHg 90%
    09:00 +1°C° 0 mm 0 m/s 708 mmHg 87%
    10:00 +2°C° 0 mm 0 m/s 708 mmHg 84%
    11:00 +2°C° 0 mm 0 m/s 708 mmHg 82%
    12:00 +3°C° 0 mm 0 m/s 708 mmHg 81%
    13:00 +3°C° 0 mm 0 m/s 708 mmHg 79%
    14:00 +3°C° 0 mm 0 m/s 708 mmHg 81%
    15:00 +2°C° 0 mm 0 m/s 708 mmHg 83%
    16:00 +2°C° 0 mm 0 m/s 708 mmHg 85%
    17:00 +2°C° 0 mm 0 m/s 708 mmHg 86%
    18:00 +1°C° 0 mm 0 m/s 708 mmHg 87%
    19:00 +1°C° 0 mm 0 m/s 708 mmHg 87%
    20:00 +1°C° 0 mm 0 m/s 708 mmHg 88%
    21:00 +1°C° 0 mm 0 m/s 708 mmHg 88%
    22:00 +1°C° 0 mm 0 m/s 708 mmHg 89%
    23:00 +1°C° 0 mm 0 m/s 708 mmHg 89%

    10 Décembre, Mardi

    Heure Température Précipitation Vent Pression Humidité
    00:00 0°C° 0 mm 0 m/s 708 mmHg 90%
    01:00 0°C° 0 mm 0 m/s 708 mmHg 90%
    02:00 0°C° 0 mm 0 m/s 708 mmHg 90%
    03:00 0°C° 0 mm 0 m/s 708 mmHg 90%
    04:00 +1°C° 0 mm 0 m/s 708 mmHg 89%
    05:00 +1°C° 0 mm 0 m/s 708 mmHg 89%
    06:00 +1°C° 0 mm 0 m/s 708 mmHg 88%
    07:00 +1°C° 0 mm 0 m/s 708 mmHg 88%
    08:00 +1°C° 0 mm 0 m/s 708 mmHg 86%
    09:00 +1°C° 0 mm 0 m/s 708 mmHg 84%
    10:00 +2°C° 0 mm 0 m/s 709 mmHg 83%
    11:00 +2°C° 0 mm 0 m/s 708 mmHg 82%
    12:00 +3°C° 0 mm 0 m/s 708 mmHg 81%
    13:00 +3°C° 0 mm 0 m/s 708 mmHg 80%
    14:00 +3°C° 0 mm 0 m/s 708 mmHg 82%
    15:00 +3°C° 0 mm 0 m/s 707 mmHg 84%
    16:00 +2°C° 0 mm 0 m/s 707 mmHg 86%
    17:00 +2°C° 0 mm 0 m/s 707 mmHg 86%
    18:00 +2°C° 0 mm 0 m/s 707 mmHg 87%
    19:00 +2°C° 0 mm 0 m/s 708 mmHg 88%
    20:00 +2°C° 0 mm 0 m/s 707 mmHg 89%
    21:00 +1°C° 0 mm 0 m/s 707 mmHg 89%
    22:00 +1°C° 0 mm 0 m/s 707 mmHg 90%
    23:00 +1°C° 0 mm 0 m/s 707 mmHg 90%

    11 Décembre, Mercredi

    Heure Température Précipitation Vent Pression Humidité
    00:00 +1°C° 0 mm 0 m/s 707 mmHg 90%
    01:00 +1°C° 0 mm 0 m/s 707 mmHg 89%
    02:00 0°C° 0 mm 0 m/s 707 mmHg 89%
    03:00 +1°C° 0 mm 1 m/s 707 mmHg 88%
    04:00 +1°C° 0 mm 1 m/s 707 mmHg 88%
    05:00 +1°C° 0 mm 1 m/s 707 mmHg 87%
    06:00 +1°C° 0 mm 1 m/s 707 mmHg 86%
    07:00 +1°C° 0 mm 1 m/s 707 mmHg 85%
    08:00 +2°C° 0.1 mm 1 m/s 707 mmHg 87%
    09:00 +2°C° 0.1 mm 1 m/s 707 mmHg 89%
    10:00 +2°C° 0.1 mm 1 m/s 707 mmHg 92%
    11:00 +2°C° 0 mm 1 m/s 707 mmHg 92%
    12:00 +3°C° 0 mm 1 m/s 707 mmHg 92%
    13:00 +3°C° 0 mm 1 m/s 707 mmHg 92%
    14:00 +3°C° 0 mm 1 m/s 707 mmHg 93%
    15:00 +2°C° 0 mm 0 m/s 707 mmHg 94%
    16:00 +1°C° 0 mm 0 m/s 707 mmHg 95%
    17:00 +1°C° 0 mm 0 m/s 707 mmHg 95%
    18:00 +1°C° 0 mm 0 m/s 707 mmHg 95%
    19:00 +1°C° 0 mm 0 m/s 708 mmHg 94%
    20:00 +1°C° 0 mm 0 m/s 708 mmHg 94%
    21:00 +1°C° 0 mm 0 m/s 708 mmHg 94%
    22:00 +1°C° 0 mm 0 m/s 708 mmHg 94%
    23:00 +1°C° 0 mm 0 m/s 708 mmHg 94%
    Voir plus